• în Republica Moldova
  • Lista ţărilor
  • Pe 7 zile
  • Temperatura apei
  • Hartă satelitară
  • Meteo pe hartă
  • Widget-uri
  • user-avatar
    Intrare

    Meteo pe oră la Igls

    Astăzi, 28 Iulie, Vineri

    Timp Temperatura Precipitaţii Vânt Presiune Umiditate
    00:00 +15°C° 0,7 mm 1 m/s 682 mmHg 92%
    01:00 +15°C° 0,7 mm 1 m/s 682 mmHg 93%
    02:00 +15°C° 1 mm 1 m/s 683 mmHg 93%
    03:00 +15°C° 1 mm 1 m/s 683 mmHg 94%
    04:00 +15°C° 1 mm 1 m/s 683 mmHg 94%
    05:00 +15°C° 0,2 mm 1 m/s 683 mmHg 92%
    06:00 +16°C° 0,2 mm 1 m/s 683 mmHg 91%
    07:00 +18°C° 0,2 mm 1 m/s 684 mmHg 89%
    08:00 +19°C° 0,2 mm 1 m/s 684 mmHg 84%
    09:00 +20°C° 0,2 mm 1 m/s 684 mmHg 80%
    10:00 +22°C° 0,2 mm 1 m/s 685 mmHg 75%
    11:00 +22°C° 0,3 mm 1 m/s 685 mmHg 73%
    12:00 +23°C° 0,3 mm 2 m/s 685 mmHg 71%
    13:00 +23°C° 0,3 mm 2 m/s 685 mmHg 69%
    14:00 +23°C° 0,5 mm 2 m/s 685 mmHg 71%
    15:00 +23°C° 0,5 mm 2 m/s 685 mmHg 73%
    16:00 +23°C° 0,5 mm 2 m/s 685 mmHg 74%
    17:00 +21°C° 0,2 mm 2 m/s 685 mmHg 79%
    18:00 +20°C° 0,2 mm 2 m/s 685 mmHg 84%
    19:00 +20°C° 0,2 mm 1 m/s 686 mmHg 89%
    20:00 +19°C° 0 mm 1 m/s 686 mmHg 91%
    21:00 +18°C° 0 mm 1 m/s 686 mmHg 94%
    22:00 +16°C° 0 mm 1 m/s 686 mmHg 96%
    23:00 +16°C° 0 mm 1 m/s 686 mmHg 96%

    Mâine, 29 Iulie, Sâmbătă

    Timp Temperatura Precipitaţii Vânt Presiune Umiditate
    00:00 +15°C° 0 mm 1 m/s 686 mmHg 96%
    01:00 +15°C° 0 mm 1 m/s 686 mmHg 96%
    02:00 +14°C° 0 mm 1 m/s 686 mmHg 95%
    03:00 +14°C° 0 mm 1 m/s 686 mmHg 95%
    04:00 +14°C° 0 mm 1 m/s 686 mmHg 95%
    05:00 +16°C° 0 mm 1 m/s 687 mmHg 91%
    06:00 +18°C° 0 mm 1 m/s 687 mmHg 88%
    07:00 +20°C° 0 mm 1 m/s 688 mmHg 85%
    08:00 +22°C° 0 mm 1 m/s 688 mmHg 77%
    09:00 +24°C° 0 mm 1 m/s 688 mmHg 69%
    10:00 +26°C° 0 mm 1 m/s 689 mmHg 61%
    11:00 +26°C° 0,2 mm 2 m/s 688 mmHg 61%
    12:00 +26°C° 0,2 mm 2 m/s 688 mmHg 60%
    13:00 +27°C° 0,2 mm 2 m/s 688 mmHg 60%
    14:00 +27°C° 0,9 mm 2 m/s 688 mmHg 62%
    15:00 +26°C° 0,9 mm 2 m/s 688 mmHg 64%
    16:00 +26°C° 0,9 mm 1 m/s 688 mmHg 66%
    17:00 +25°C° 1,6 mm 1 m/s 688 mmHg 73%
    18:00 +23°C° 1,6 mm 1 m/s 687 mmHg 81%
    19:00 +22°C° 1,6 mm 1 m/s 687 mmHg 88%
    20:00 +21°C° 1,5 mm 1 m/s 687 mmHg 90%
    21:00 +20°C° 1,5 mm 1 m/s 688 mmHg 92%
    22:00 +20°C° 1,5 mm 1 m/s 688 mmHg 94%
    23:00 +19°C° 0,6 mm 1 m/s 687 mmHg 94%

    Poimâine, 30 Iulie, Duminică

    Timp Temperatura Precipitaţii Vânt Presiune Umiditate
    00:00 +19°C° 0,6 mm 1 m/s 687 mmHg 94%
    01:00 +18°C° 0,6 mm 2 m/s 687 mmHg 94%
    02:00 +18°C° 0,3 mm 2 m/s 687 mmHg 94%
    03:00 +18°C° 0,3 mm 2 m/s 687 mmHg 94%
    04:00 +18°C° 0,3 mm 2 m/s 686 mmHg 94%
    05:00 +18°C° 0,2 mm 2 m/s 686 mmHg 91%
    06:00 +19°C° 0,2 mm 2 m/s 687 mmHg 89%
    07:00 +20°C° 0,2 mm 2 m/s 687 mmHg 87%
    08:00 +23°C° 0,2 mm 1 m/s 687 mmHg 75%
    09:00 +26°C° 0,2 mm 1 m/s 687 mmHg 63%
    10:00 +28°C° 0,2 mm 1 m/s 688 mmHg 51%
    11:00 +28°C° 0,6 mm 1 m/s 687 mmHg 51%
    12:00 +28°C° 0,6 mm 1 m/s 687 mmHg 50%
    13:00 +28°C° 0,6 mm 1 m/s 687 mmHg 49%
    14:00 +27°C° 1,7 mm 1 m/s 687 mmHg 58%
    15:00 +26°C° 1,7 mm 1 m/s 687 mmHg 66%
    16:00 +25°C° 1,7 mm 1 m/s 686 mmHg 74%
    17:00 +24°C° 1,6 mm 1 m/s 686 mmHg 79%
    18:00 +23°C° 1,6 mm 1 m/s 687 mmHg 85%
    19:00 +22°C° 1,6 mm 1 m/s 687 mmHg 90%
    20:00 +21°C° 0,2 mm 1 m/s 687 mmHg 90%
    21:00 +20°C° 0,2 mm 1 m/s 687 mmHg 91%
    22:00 +18°C° 0,2 mm 2 m/s 687 mmHg 91%
    23:00 +18°C° 0 mm 2 m/s 687 mmHg 91%

    31 Iulie, Luni

    Timp Temperatura Precipitaţii Vânt Presiune Umiditate
    00:00 +18°C° 0 mm 2 m/s 687 mmHg 91%
    01:00 +17°C° 0 mm 2 m/s 687 mmHg 91%
    02:00 +17°C° 0 mm 2 m/s 687 mmHg 90%
    03:00 +16°C° 0 mm 2 m/s 687 mmHg 89%
    04:00 +16°C° 0 mm 2 m/s 686 mmHg 89%
    05:00 +19°C° 0 mm 1 m/s 687 mmHg 85%
    06:00 +20°C° 0 mm 1 m/s 687 mmHg 81%
    07:00 +22°C° 0 mm 1 m/s 688 mmHg 77%
    08:00 +24°C° 0 mm 1 m/s 688 mmHg 67%
    09:00 +26°C° 0 mm 1 m/s 689 mmHg 57%
    10:00 +29°C° 0 mm 1 m/s 689 mmHg 47%
    11:00 +29°C° 0 mm 1 m/s 689 mmHg 44%
    12:00 +30°C° 0 mm 2 m/s 689 mmHg 42%
    13:00 +31°C° 0 mm 2 m/s 688 mmHg 40%
    14:00 +31°C° 0,1 mm 2 m/s 688 mmHg 42%
    15:00 +31°C° 0,1 mm 2 m/s 688 mmHg 44%
    16:00 +30°C° 0,1 mm 2 m/s 688 mmHg 46%
    17:00 +29°C° 0,2 mm 2 m/s 688 mmHg 56%
    18:00 +27°C° 0,2 mm 1 m/s 687 mmHg 66%
    19:00 +25°C° 0,2 mm 1 m/s 687 mmHg 76%
    20:00 +24°C° 0,4 mm 2 m/s 687 mmHg 80%
    21:00 +21°C° 0,4 mm 2 m/s 687 mmHg 83%
    22:00 +20°C° 0,4 mm 2 m/s 687 mmHg 86%
    23:00 +20°C° 0 mm 2 m/s 687 mmHg 86%

    1 August, Marţi

    Timp Temperatura Precipitaţii Vânt Presiune Umiditate
    00:00 +19°C° 0 mm 2 m/s 687 mmHg 86%
    01:00 +19°C° 0 mm 2 m/s 687 mmHg 86%
    02:00 +19°C° 0 mm 2 m/s 687 mmHg 85%
    03:00 +18°C° 0 mm 2 m/s 687 mmHg 84%
    04:00 +18°C° 0 mm 2 m/s 687 mmHg 83%
    05:00 +19°C° 0 mm 2 m/s 687 mmHg 79%
    06:00 +20°C° 0 mm 2 m/s 688 mmHg 75%
    07:00 +23°C° 0 mm 2 m/s 688 mmHg 71%
    08:00 +25°C° 0 mm 1 m/s 689 mmHg 61%
    09:00 +27°C° 0 mm 1 m/s 689 mmHg 51%
    10:00 +30°C° 0 mm 1 m/s 689 mmHg 41%
    11:00 +31°C° 0 mm 1 m/s 689 mmHg 39%
    12:00 +31°C° 0 mm 2 m/s 689 mmHg 37%
    13:00 +32°C° 0 mm 2 m/s 689 mmHg 35%
    14:00 +32°C° 0 mm 2 m/s 689 mmHg 38%
    15:00 +31°C° 0 mm 2 m/s 689 mmHg 40%
    16:00 +31°C° 0 mm 2 m/s 689 mmHg 42%
    17:00 +29°C° 1,3 mm 1 m/s 689 mmHg 55%
    18:00 +27°C° 1,3 mm 1 m/s 689 mmHg 68%
    19:00 +25°C° 1,3 mm 1 m/s 689 mmHg 81%
    20:00 +24°C° 1,4 mm 1 m/s 689 mmHg 83%
    21:00 +23°C° 1,4 mm 1 m/s 689 mmHg 84%
    22:00 +20°C° 1,4 mm 2 m/s 689 mmHg 86%
    23:00 +21°C° 0,6 mm 1 m/s 689 mmHg 87%

    2 August, Miercuri

    Timp Temperatura Precipitaţii Vânt Presiune Umiditate
    00:00 +20°C° 0,6 mm 1 m/s 689 mmHg 88%
    01:00 +19°C° 0,6 mm 1 m/s 689 mmHg 89%
    02:00 +19°C° 0,1 mm 1 m/s 689 mmHg 88%
    03:00 +19°C° 0,1 mm 1 m/s 689 mmHg 87%
    04:00 +18°C° 0,1 mm 1 m/s 689 mmHg 87%
    05:00 +20°C° 0 mm 1 m/s 689 mmHg 82%
    06:00 +21°C° 0 mm 1 m/s 689 mmHg 78%
    07:00 +23°C° 0 mm 1 m/s 690 mmHg 74%
    08:00 +25°C° 0 mm 1 m/s 690 mmHg 64%
    09:00 +28°C° 0 mm 1 m/s 691 mmHg 54%
    10:00 +30°C° 0 mm 1 m/s 691 mmHg 43%
    11:00 +31°C° 0,1 mm 1 m/s 691 mmHg 41%
    12:00 +32°C° 0,1 mm 1 m/s 691 mmHg 39%
    13:00 +32°C° 0,1 mm 1 m/s 691 mmHg 37%
    14:00 +32°C° 0 mm 1 m/s 690 mmHg 39%
    15:00 +32°C° 0 mm 1 m/s 690 mmHg 41%
    16:00 +31°C° 0 mm 1 m/s 690 mmHg 43%
    17:00 +30°C° 0,3 mm 1 m/s 690 mmHg 54%
    18:00 +28°C° 0,3 mm 1 m/s 690 mmHg 65%
    19:00 +26°C° 0,3 mm 1 m/s 689 mmHg 76%
    20:00 +25°C° 0,1 mm 1 m/s 689 mmHg 78%
    21:00 +23°C° 0,1 mm 1 m/s 689 mmHg 79%
    22:00 +22°C° 0,1 mm 1 m/s 689 mmHg 80%
    23:00 +21°C° 0 mm 1 m/s 689 mmHg 79%
    Arată mai mult